GEFSSGP_con_cape1000_294.txt.gz
Probability
58 68 74 71 68 39 0 0 0 0 0 0 0 0 0 0 0 3 6 3 6 6 6 10 26 23 32 35 42 35 39 42 42 35 29 29 29 32 39 39 35 29 39 42 35 42 52 42 42
55 45 61 65 42 3 0 0 3 0 0 0 0 0 3 0 0 6 6 6 6 6 3 6 23 29 23 29 32 32 29 39 39 29 29 26 26 29 32 29 26 29 19 29 39 42 42 48 39
68 42 48 48 6 0 0 3 3 3 0 0 0 3 3 0 6 6 6 3 3 3 6 19 32 35 29 29 29 26 29 32 23 26 23 16 19 26 26 16 16 23 26 29 29 32 42 39 35
52 52 42 13 0 0 0 0 3 0 0 0 0 3 6 6 10 6 3 3 6 3 10 16 42 32 26 26 26 26 29 16 19 19 19 16 23 19 19 16 19 23 23 26 23 29 32 32 26
39 48 19 0 0 0 0 0 0 0 0 0 0 6 6 10 10 6 6 6 3 3 3 3 35 35 29 32 26 16 16 13 13 16 19 13 13 16 19 16 16 16 19 23 26 32 32 23 16
42 35 0 0 0 0 0 0 0 0 0 0 0 3 6 10 10 6 6 3 3 3 3 6 32 26 26 29 26 23 16 13 13 10 16 10 13 10 13 16 16 19 16 26 23 23 26 19 16
32 35 0 0 0 0 0 0 0 0 0 0 3 3 10 6 10 6 3 3 3 6 6 6 6 16 32 29 16 16 23 10 3 6 10 13 16 13 16 16 16 16 19 19 23 19 19 16 16
32 26 0 0 0 0 0 0 0 0 0 0 0 3 10 13 10 6 6 6 6 6 6 3 3 6 0 10 13 16 16 16 10 3 10 13 23 16 19 19 23 16 19 13 19 19 19 19 23
6 13 3 0 0 0 0 0 0 0 0 0 0 6 10 10 10 10 10 6 6 6 6 3 3 3 0 3 3 10 13 10 13 6 10 10 0 3 0 10 23 19 13 16 19 19 23 26 19
6 10 3 0 0 0 0 0 0 0 0 0 0 3 3 10 10 10 10 10 10 10 6 3 3 0 0 0 0 0 3 0 0 0 0 0 0 0 0 16 19 16 13 16 19 23 19 10 10
3 3 0 0 0 0 0 0 0 0 0 0 0 3 3 3 6 6 6 6 6 6 3 3 3 0 0 0 0 0 0 0 0 0 0 0 0 0 0 6 13 13 10 6 6 13 10 6 10
3 3 0 0 0 0 0 3 0 0 0 0 0 3 3 3 6 6 6 6 6 6 3 3 0 3 0 0 0 0 0 0 0 0 0 0 0 0 3 3 3 6 6 3 6 3 6 6 6
0 0 0 0 0 0 0 0 0 0 0 0 3 3 3 3 3 3 6 6 6 6 6 3 3 0 6 0 0 0 0 0 0 0 0 0 0 0 0 3 3 3 3 3 3 0 0 3 6
0 0 0 0 0 0 0 0 0 0 0 0 0 3 3 3 3 3 3 6 6 6 6 6 3 3 3 3 0 0 0 0 0 0 0 0 0 0 0 3 3 0 3 3 0 0 0 3 0
0 0 0 0 0 0 0 0 0 0 0 0 0 0 3 3 3 3 3 3 6 3 6 6 3 3 3 3 0 0 0 0 0 0 0 0 0 0 0 0 0 3 0 3 0 0 0 0 0
3 0 0 0 0 0 0 0 0 0 0 0 0 0 3 3 3 3 3 3 3 0 3 6 6 6 3 3 0 0 0 0 0 0 0 0 0 0 0 0 0 3 3 3 0 0 0 0 0
0 0 0 0 0 0 0 0 0 0 0 0 0 0 3 0 0 3 3 3 3 0 0 10 6 3 6 3 3 0 0 0 0 0 0 0 0 0 0 0 0 3 3 0 0 0 0 0 0
0 0 0 0 0 0 0 0 0 0 0 0 3 3 0 3 0 3 3 0 0 0 0 3 6 6 6 10 6 6 0 0 0 3 0 0 0 0 0 0 0 0 0 0 3 0 0 0 0
0 0 0 0 0 0 0 0 3 0 0 0 3 3 3 3 0 3 3 3 0 0 0 3 10 6 13 10 6 3 3 3 3 6 3 0 0 0 0 0 0 0 3 3 0 0 0 0 0
0 0 0 0 0 0 0 0 0 0 3 3 3 3 3 3 0 3 0 0 0 3 0 6 6 3 6 6 10 10 10 3 3 3 3 0 0 0 0 0 0 0 3 3 0 0 0 0 0
0 0 0 0 0 0 0 0 0 0 3 3 3 3 3 0 0 0 0 0 0 3 3 3 3 3 3 3 0 3 6 3 3 3 0 0 0 0 0 0 0 0 3 6 6 0 0 0 0
0 0 0 0 0 0 0 0 0 0 3 0 0 0 0 0 0 0 0 0 0 3 6 6 6 6 6 3 3 6 3 0 0 0 0 3 0 0 0 0 0 0 3 3 3 3 0 0 0
0 0 0 0 0 0 0 0 0 0 0 0 0 0 0 0 0 0 0 0 0 6 6 6 6 3 6 6 6 6 3 3 0 0 3 0 0 0 0 0 0 0 0 0 0 3 3 0 0
0 0 0 0 0 0 0 0 0 0 0 0 0 0 0 0 3 0 0 3 6 6 6 6 6 3 3 6 6 6 3 3 3 0 0 0 0 0 0 0 0 0 0 0 0 3 0 0 0
0 0 0 0 0 0 0 0 0 0 0 0 0 0 0 0 0 0 0 6 6 10 6 6 6 6 6 10 10 10 10 6 6 0 0 0 0 0 0 0 0 0 0 0 0 3 0 0 0
0 0 0 0 0 0 0 0 0 0 0 0 0 0 0 0 0 3 3 6 10 10 10 10 10 10 10 10 10 10 6 6 6 3 3 3 3 3 0 0 0 0 0 0 0 0 0 0 3
0 0 0 0 0 0 0 0 0 0 0 0 0 0 3 0 0 0 3 13 10 10 13 10 10 6 10 10 6 6 6 6 6 0 0 0 3 3 0 0 0 3 0 0 3 0 0 0 0
0 0 0 0 0 0 0 0 0 0 0 0 0 0 3 0 6 3 6 10 10 3 10 10 6 3 6 6 6 6 6 6 0 0 0 0 0 3 3 0 0 3 3 0 3 3 3 0 3
0 0 0 0 0 0 0 0 0 0 0 0 0 0 0 0 6 6 3 10 6 3 3 6 10 10 6 6 6 6 6 3 3 0 0 0 0 0 3 3 3 3 3 3 3 6 3 0 0
0 0 0 0 0 0 0 0 0 0 0 0 0 0 0 0 3 3 6 6 6 3 3 3 6 6 3 3 3 3 0 0 0 0 0 0 0 0 0 3 3 3 3 0 0 0 0 0 0

GEFSSGP_con_cape1000_300.txt.gz
Probability
58 45 35 10 0 0 0 0 0 0 0 0 0 0 0 0 0 0 0 6 3 0 16 29 39 42 48 45 35 39 45 42 42 39 39 35 42 35 32 29 29 35 29 35 39 39 42 35 45
42 39 26 3 0 0 0 0 0 0 0 0 3 3 0 3 3 3 6 6 3 6 16 23 42 35 39 32 35 35 35 32 26 19 29 26 32 26 26 23 19 23 29 32 35 39 35 39 39
45 42 6 0 0 0 0 0 0 0 0 0 3 3 0 3 6 3 6 6 3 3 16 26 32 35 29 29 35 35 32 29 29 23 23 23 26 19 23 16 16 16 26 29 32 39 35 39 29
29 6 0 0 0 0 0 0 0 0 0 3 3 3 3 6 6 6 6 3 3 3 19 29 32 32 26 26 29 32 29 26 23 16 13 19 26 23 23 19 16 19 13 23 23 29 32 26 32
23 0 0 0 0 0 0 0 0 0 0 0 0 0 6 6 6 6 6 3 3 3 16 26 29 29 29 26 23 23 26 23 19 19 23 19 23 16 13 19 19 16 16 19 26 29 26 23 26
0 0 0 0 0 0 0 0 0 0 0 0 0 0 6 6 6 6 3 3 3 3 13 32 35 35 32 35 29 19 23 19 19 16 19 26 16 13 16 13 19 19 16 13 26 26 29 26 23
3 0 0 0 0 0 0 0 0 0 0 3 3 0 3 3 6 6 6 3 3 6 13 16 19 29 48 45 29 19 19 23 23 23 26 26 26 23 19 23 19 16 16 19 16 19 16 23 29
0 0 0 0 0 0 0 0 0 0 0 3 3 0 3 3 3 3 3 3 3 3 3 3 3 6 13 16 35 26 23 19 19 23 29 23 26 29 23 19 26 19 13 16 23 23 16 26 29
0 0 0 0 0 0 0 0 0 0 0 3 3 6 3 3 3 3 3 3 3 3 3 3 3 3 6 6 19 26 35 29 29 16 26 16 0 3 10 13 26 16 13 16 19 16 16 10 13
0 0 0 0 0 0 0 0 0 0 3 3 6 6 3 3 3 3 3 3 3 3 3 3 3 0 0 3 3 0 3 0 0 0 3 0 0 0 3 13 19 13 13 13 13 13 13 3 3
0 0 0 0 0 0 0 0 0 0 0 3 3 6 6 6 6 3 3 3 3 3 3 0 0 0 0 0 0 0 0 0 0 0 0 0 0 0 0 0 0 3 6 0 0 3 0 0 3
0 0 0 0 0 0 0 0 0 0 0 3 3 3 6 6 6 3 3 3 3 3 3 0 0 0 0 0 0 0 0 0 0 0 0 0 0 0 0 0 0 0 0 0 0 0 0 0 3
0 0 0 0 0 0 0 0 0 0 0 3 3 3 3 6 6 6 3 3 3 3 3 0 0 0 0 0 0 0 0 0 0 0 0 0 0 0 0 0 0 0 0 0 0 0 0 0 0
0 0 0 0 0 0 0 0 0 0 3 3 3 3 3 3 3 6 6 3 3 3 3 0 0 0 0 0 0 0 0 0 0 0 0 0 0 0 0 0 0 0 0 0 0 0 0 0 0
0 0 0 0 0 0 0 0 0 0 3 3 3 3 3 3 3 3 6 6 3 3 3 3 0 0 0 0 0 0 0 0 0 0 0 0 0 0 0 0 0 0 0 0 0 0 0 0 0
0 0 0 0 0 0 0 0 0 0 3 3 3 3 3 3 3 3 3 6 3 3 3 3 3 0 0 0 0 0 0 0 0 0 0 0 0 0 0 0 0 0 0 0 0 0 0 0 0
0 0 0 0 0 0 0 0 0 0 0 0 0 0 0 0 0 3 3 3 3 3 3 3 3 0 0 0 0 0 0 0 0 0 0 0 0 0 0 0 0 0 0 0 0 0 0 0 0
0 0 0 0 0 0 0 0 0 0 0 0 0 0 0 0 0 3 3 3 0 3 0 0 0 0 0 0 0 0 0 0 0 0 0 0 0 0 0 0 0 0 0 0 0 0 0 0 0
0 0 0 0 0 0 0 0 0 0 0 0 0 0 0 0 0 0 3 3 6 3 0 0 0 0 0 0 0 0 0 0 0 0 0 0 0 0 0 0 0 0 0 0 0 0 0 0 0
0 0 0 0 0 0 0 0 0 0 0 0 0 0 0 0 0 0 0 3 3 3 3 0 0 0 0 0 0 0 0 0 0 0 0 0 0 0 0 0 0 0 0 0 0 0 0 0 0
0 0 0 0 0 0 0 0 0 0 0 0 0 0 0 0 0 0 0 0 3 3 6 0 0 0 0 0 0 0 0 0 0 0 0 0 0 0 0 0 0 0 0 0 0 0 0 0 0
0 0 0 0 0 0 0 0 0 0 0 0 0 0 0 0 0 0 0 0 0 6 6 0 0 0 0 0 0 0 0 0 0 0 0 0 0 0 0 0 0 0 0 0 0 0 0 0 0
0 0 0 0 0 0 0 0 0 0 0 0 0 0 0 0 0 0 0 0 3 3 6 3 0 0 0 0 0 0 0 0 0 0 0 0 0 0 0 0 0 0 0 0 0 0 0 0 0
0 0 0 0 0 0 0 0 0 0 0 0 0 0 0 0 0 0 0 0 3 3 3 3 3 0 0 0 0 0 0 0 0 0 0 0 0 0 0 0 0 0 0 0 0 0 0 0 0
0 0 0 0 0 0 0 0 0 0 0 0 0 0 0 0 0 0 0 0 3 3 3 3 0 0 0 0 0 0 0 0 0 0 0 0 0 0 0 0 0 0 0 0 0 0 0 0 0
0 0 0 0 0 0 0 0 0 0 0 0 0 0 0 0 0 0 0 0 0 3 3 3 0 0 0 0 0 0 0 0 0 0 0 0 0 0 0 0 0 0 0 0 0 0 0 0 0
0 0 0 0 0 0 0 0 0 0 0 0 0 0 0 0 0 0 0 0 0 3 3 0 0 0 3 3 0 0 0 0 0 0 0 0 0 0 0 0 0 0 0 0 0 0 0 0 0
0 0 0 0 0 0 0 0 0 0 0 0 0 0 0 0 0 3 0 3 3 3 0 0 0 0 0 3 3 3 0 0 0 0 0 0 3 3 0 0 0 0 0 0 0 0 0 0 0
0 0 0 0 0 0 0 0 0 0 0 0 0 0 0 0 0 3 0 0 0 0 0 0 0 3 3 3 3 3 0 0 0 0 0 0 0 3 0 0 0 0 0 0 0 0 0 0 0
0 0 0 0 0 0 0 0 0 0 0 0 0 0 0 0 0 0 0 3 3 0 0 0 0 3 3 3 3 3 0 0 0 0 0 0 0 0 0 0 0 0 0 0 0 0 0 0 0

GEFSSGP_con_cape1000_306.txt.gz
Probability
55 26 6 0 0 0 0 0 0 0 0 0 0 0 0 0 0 0 0 0 0 0 3 16 32 32 35 35 32 39 32 39 32 26 26 32 29 32 29 32 32 32 35 39 42 39 35 45 45
35 29 3 0 0 0 0 0 0 0 0 0 0 0 0 3 3 3 3 6 0 0 3 10 35 29 32 32 26 26 26 29 29 26 26 32 26 23 19 26 29 23 23 39 42 32 29 39 48
32 19 0 0 0 0 0 0 0 0 0 0 0 0 0 3 3 0 3 6 0 3 3 6 32 32 26 26 26 26 26 23 23 19 23 23 23 19 19 16 23 23 26 26 32 29 39 39 42
6 0 0 0 0 0 0 0 0 0 0 0 0 3 3 6 6 3 6 0 6 6 6 10 29 29 26 26 23 23 19 19 19 19 19 23 19 16 13 16 16 23 26 23 23 29 32 32 42
3 0 0 0 0 0 0 0 0 0 0 0 0 0 0 6 6 6 6 3 3 6 6 10 19 26 26 26 23 23 19 26 26 19 19 16 13 10 19 19 16 16 16 19 23 26 23 29 32
0 0 0 0 0 0 0 0 0 0 0 0 0 0 3 6 6 6 3 3 3 6 6 6 13 19 26 29 26 26 19 19 23 19 10 6 10 13 23 19 16 16 13 19 23 23 26 23 19
0 0 0 0 0 0 0 0 0 0 0 0 0 0 3 6 6 6 3 3 3 3 6 6 3 13 26 29 29 23 19 23 23 6 13 19 19 19 23 16 13 13 10 16 19 19 13 16 19
0 0 0 0 0 0 0 0 0 0 0 0 0 0 0 3 6 6 3 3 3 3 3 3 3 6 10 6 26 19 19 23 19 16 19 16 13 6 10 13 16 13 10 10 10 23 19 19 19
0 0 0 0 0 0 0 0 0 3 3 3 3 0 0 3 6 6 3 3 3 3 3 3 3 3 6 6 3 3 10 13 16 13 16 13 3 3 3 6 13 13 13 16 13 16 16 16 16
0 0 0 0 0 0 0 0 0 3 3 3 3 3 3 3 3 3 3 3 3 3 3 3 0 0 0 0 0 0 0 0 3 0 0 0 0 0 3 6 10 10 10 13 13 16 10 3 0
0 0 0 0 0 0 0 0 0 0 0 0 0 3 3 3 3 3 3 3 3 3 3 3 0 0 0 0 0 0 0 0 0 0 0 0 0 0 0 0 0 0 0 0 0 0 0 0 0
0 0 0 0 0 0 0 0 0 0 0 0 0 0 3 3 3 3 3 3 3 3 3 0 0 0 0 0 0 0 0 0 0 0 0 0 0 0 0 0 0 0 0 0 0 0 0 0 0
0 0 0 0 0 0 0 0 0 3 3 0 0 0 3 3 3 3 3 3 3 3 3 0 0 0 0 0 0 0 0 0 0 0 0 0 0 0 0 0 0 0 0 0 0 0 0 0 0
0 0 0 0 0 0 0 0 0 3 3 0 0 0 3 3 3 3 3 3 3 0 0 0 0 0 0 0 0 0 0 0 0 0 0 0 0 0 0 0 0 0 0 0 0 0 0 0 0
0 0 0 0 0 0 0 0 0 0 3 0 0 0 0 0 3 3 3 3 3 0 0 3 0 0 0 0 0 0 0 0 0 0 0 0 0 0 0 0 0 0 0 0 0 0 0 0 0
0 0 0 0 0 0 0 0 0 0 3 3 3 3 0 0 0 0 3 3 3 0 3 3 0 0 0 0 0 0 0 0 0 0 0 0 0 0 0 0 0 0 0 0 0 0 0 0 0
0 0 0 0 0 0 0 0 0 0 3 0 0 0 0 0 0 0 0 3 0 3 3 3 0 0 0 0 0 0 0 0 0 0 0 0 0 0 0 0 0 0 0 0 0 0 0 0 0
0 0 0 0 0 0 0 0 0 0 0 0 0 0 0 0 0 0 0 0 0 3 3 0 0 0 0 0 0 0 0 0 0 0 0 0 0 0 0 0 0 0 0 0 0 0 0 0 0
0 0 0 0 0 0 0 0 0 0 0 0 0 0 0 0 0 0 0 3 0 3 3 3 3 3 0 0 0 0 0 0 0 0 0 0 0 0 0 0 0 0 0 0 0 0 0 0 0
0 0 0 0 0 0 0 0 0 0 0 0 0 0 0 0 0 0 0 3 3 3 3 3 3 0 0 0 0 0 0 0 0 0 0 0 0 0 0 0 0 0 0 0 0 0 0 0 0
0 0 0 0 0 0 0 0 0 0 0 0 0 0 0 0 0 0 0 0 3 3 3 3 0 0 0 0 0 0 0 0 0 0 0 0 0 0 0 0 0 0 0 0 0 0 0 0 0
3 0 0 0 0 0 0 0 0 0 0 0 0 0 0 0 0 0 0 0 0 6 3 0 0 0 0 0 0 0 0 0 0 0 0 0 0 0 0 0 0 0 0 0 0 0 0 0 0
0 0 0 0 0 0 0 0 0 0 0 0 0 0 0 0 0 0 0 0 0 6 3 0 3 0 0 0 0 0 0 0 0 0 0 0 0 0 0 0 0 0 0 0 0 0 0 0 0
0 0 0 0 0 0 0 0 0 0 0 0 0 0 0 0 0 0 0 0 0 3 3 0 0 0 0 0 0 0 0 0 0 0 0 0 0 0 0 0 0 0 0 0 0 0 0 0 0
0 0 0 0 0 0 0 0 0 0 0 0 0 0 0 0 0 0 0 0 0 6 6 0 0 0 0 0 0 0 0 0 0 0 0 0 0 0 0 0 0 0 0 0 0 0 0 0 0
0 0 0 0 0 0 0 0 0 0 0 0 0 0 0 0 0 0 0 0 0 3 6 0 0 3 0 0 0 0 0 0 0 0 0 0 0 0 0 0 0 0 0 0 0 0 0 0 0
0 0 0 0 0 0 0 0 0 0 0 0 0 0 0 0 0 0 0 0 0 3 3 0 3 3 3 0 0 0 0 0 0 0 0 0 0 0 0 0 0 0 0 0 0 0 0 0 0
0 0 0 0 0 0 0 0 0 0 0 0 0 0 0 0 0 0 0 0 0 3 3 3 3 3 3 0 0 0 0 0 0 0 0 0 0 0 0 0 0 0 0 0 0 0 0 0 0
0 0 0 0 0 0 0 0 0 0 0 0 0 0 0 0 0 0 0 0 0 0 3 3 3 0 0 0 0 0 0 0 0 0 0 0 0 0 0 0 0 0 0 0 0 0 0 0 0
0 0 0 0 0 0 0 0 0 0 0 0 0 0 0 0 0 0 0 0 0 0 0 0 0 0 0 0 0 0 0 0 0 0 0 0 0 0 0 0 0 0 0 0 0 0 0 0 0

GEFSSGP_con_cape1000_312.txt.gz
Probability
52 61 39 35 3 3 0 0 0 0 0 0 0 0 0 0 0 0 3 0 0 0 6 19 29 26 32 35 32 26 35 26 23 29 29 26 23 29 26 26 29 32 35 39 35 35 32 39 39
48 42 19 3 3 0 0 0 0 0 0 0 0 0 0 0 3 3 3 0 0 0 6 10 26 29 35 32 26 32 23 23 19 23 26 26 26 23 26 26 26 26 32 39 35 39 35 42 39
35 32 10 3 0 0 0 0 0 0 0 0 0 0 0 0 3 3 3 3 0 0 3 19 26 26 39 32 29 26 26 29 32 23 26 19 23 23 26 29 26 29 32 32 29 35 42 42 39
32 19 3 0 0 0 0 0 0 0 0 0 0 0 0 3 3 3 3 3 3 3 3 16 26 32 35 32 23 23 23 26 29 32 29 29 23 19 19 19 16 23 23 23 32 35 32 39 32
16 3 3 0 0 0 0 0 0 0 0 3 0 0 0 3 3 3 3 3 3 3 3 6 26 26 32 29 23 19 23 23 26 26 26 23 19 23 23 19 13 13 23 26 23 29 26 19 29
13 0 0 0 0 0 0 0 0 0 0 0 0 0 0 3 3 3 6 3 3 3 6 10 16 19 26 29 23 23 26 23 23 29 35 19 16 16 13 13 10 13 23 19 23 23 16 19 16
6 0 0 0 0 0 0 0 0 0 0 0 0 0 0 3 3 6 6 3 3 3 3 10 13 16 19 29 23 29 29 29 26 19 23 13 16 10 10 10 13 13 13 13 16 16 16 16 16
6 0 0 0 0 0 0 0 0 0 0 0 0 0 0 3 6 6 6 6 3 3 3 3 6 13 10 10 16 13 19 16 13 13 10 13 10 6 10 10 10 10 10 10 13 10 13 16 13
0 0 0 0 0 0 0 0 0 0 0 0 0 0 0 3 6 10 6 6 6 6 6 3 3 6 6 3 0 10 10 6 6 3 10 6 0 0 6 6 10 6 6 6 10 10 13 16 13
3 0 0 0 0 0 0 0 0 0 0 0 0 3 3 6 10 10 10 10 6 6 6 6 6 6 6 6 3 3 0 0 0 0 0 3 3 6 3 3 10 6 6 6 6 10 10 13 13
0 3 0 0 0 0 0 0 0 0 0 0 0 0 3 6 10 6 6 6 6 6 10 6 6 6 6 6 6 3 0 0 0 0 0 3 3 3 0 3 3 6 3 6 6 6 6 6 6
0 0 0 0 0 0 0 3 3 0 0 0 0 0 3 10 6 6 6 3 3 3 10 3 3 6 6 6 6 3 0 0 0 0 0 0 0 0 0 0 0 6 6 3 6 6 3 3 3
0 0 0 0 0 0 0 0 0 0 3 0 0 0 3 6 3 0 0 3 3 0 0 3 3 3 3 10 10 6 3 0 0 0 0 0 3 0 0 0 0 3 3 0 3 3 0 3 0
0 0 0 0 0 0 0 0 0 3 3 3 0 0 0 0 0 0 0 3 3 3 0 0 3 3 3 6 6 10 3 3 0 0 0 0 0 3 3 0 0 0 0 0 0 0 3 3 3
0 0 0 0 0 0 0 0 0 0 3 3 0 0 0 0 0 0 0 0 3 3 3 0 3 3 3 3 6 6 6 3 0 3 0 0 0 0 0 3 0 0 0 0 0 3 3 3 3
0 0 0 0 0 0 0 0 0 0 3 3 0 0 0 0 0 0 0 3 3 3 3 6 3 3 3 3 6 6 10 6 0 3 0 0 0 0 0 0 0 3 3 0 3 3 3 3 3
3 0 0 0 0 0 0 0 0 0 0 0 0 0 3 3 0 0 0 3 6 6 6 10 6 6 6 6 10 6 6 6 3 0 3 3 0 0 0 0 3 0 3 3 0 0 0 0 3
0 0 0 0 0 0 0 0 0 0 0 0 0 0 0 3 3 0 3 6 10 10 6 10 13 16 13 13 13 13 6 6 6 3 3 3 3 0 0 6 0 0 3 3 3 0 0 3 3
0 0 0 0 0 0 0 0 0 0 0 0 0 0 0 0 0 3 6 10 10 10 10 6 13 16 16 13 13 13 13 3 3 3 3 3 3 3 3 3 3 3 6 3 3 0 3 0 0
0 0 0 0 0 0 0 0 0 0 0 0 0 0 0 0 0 6 10 13 10 10 10 13 13 13 16 23 16 16 6 3 6 6 6 6 3 0 0 0 6 3 10 6 3 0 0 0 0
0 0 0 0 0 0 0 0 0 0 0 0 0 0 0 0 0 0 10 13 13 10 13 13 13 13 13 13 10 10 10 10 6 6 6 3 3 3 3 3 0 0 0 10 10 3 6 3 3
0 0 0 0 0 0 0 0 0 0 0 0 0 0 0 0 0 0 3 13 13 13 13 13 13 13 13 16 10 10 13 13 3 3 6 3 3 3 0 0 0 0 0 6 3 0 0 3 6
0 0 0 0 0 0 0 0 0 0 0 0 0 0 0 0 0 0 3 3 10 10 13 16 13 10 10 10 13 13 16 16 10 6 6 3 0 0 0 0 0 0 0 3 0 0 3 6 3
0 0 0 0 0 0 0 0 0 0 0 0 0 0 0 0 0 0 6 10 6 10 13 13 13 10 6 10 10 10 10 3 10 10 6 6 0 0 0 0 0 0 0 0 3 3 3 6 3
0 0 0 0 0 0 0 0 0 0 0 0 0 0 0 0 0 0 6 10 10 16 16 13 13 10 6 6 10 10 10 6 6 6 10 3 3 0 0 0 0 0 3 3 3 6 10 3 3
0 0 0 0 0 0 0 0 0 0 0 0 0 0 0 0 0 3 6 13 10 16 13 10 13 10 10 6 6 10 10 10 6 6 6 6 6 3 0 0 0 0 0 3 6 3 3 3 3
0 0 0 0 0 0 0 0 0 0 0 0 0 0 0 0 0 3 6 10 10 16 13 10 10 6 6 6 6 6 6 6 6 6 6 6 6 6 0 0 0 0 0 3 3 3 3 0 0
0 0 0 0 0 0 0 0 0 0 0 0 0 0 0 0 0 0 3 6 13 16 13 13 10 10 6 6 6 6 6 6 6 6 6 6 6 6 6 3 0 0 0 0 3 3 3 0 0
0 0 0 0 0 0 0 0 0 0 0 0 0 0 0 0 0 0 3 3 6 10 10 13 10 10 6 6 6 6 6 6 6 6 6 3 3 6 6 3 0 0 0 0 0 0 0 0 0
0 0 0 0 0 0 0 0 0 0 0 0 0 0 0 0 0 0 0 3 6 6 6 6 6 10 3 3 3 6 6 6 6 6 3 3 3 3 3 3 0 0 0 0 0 0 0 0 0

GEFSSGP_con_cape1000_318.txt.gz
Probability
58 55 68 74 77 39 3 0 3 0 0 0 0 0 0 0 0 0 6 0 3 10 10 19 39 39 35 35 35 32 32 39 29 29 32 32 42 39 32 32 35 35 32 29 29 32 35 35 39
61 48 55 68 55 3 0 0 0 0 0 0 0 0 0 0 0 0 0 3 0 6 6 16 39 35 35 35 35 35 26 26 23 26 32 32 23 26 26 29 32 32 29 29 32 29 35 35 32
52 45 45 55 10 0 0 0 0 0 0 0 0 0 0 0 0 0 0 0 0 3 10 23 35 29 26 29 29 29 23 29 29 23 26 29 19 19 29 19 19 23 29 29 29 32 26 26 26
48 52 39 19 0 0 0 0 0 0 0 0 0 0 0 0 0 0 0 0 0 6 10 13 32 29 26 23 23 29 26 26 26 23 19 19 23 23 23 19 13 13 13 23 23 23 23 19 23
39 45 23 0 0 0 0 0 0 0 0 0 0 0 0 0 0 0 3 3 0 0 6 16 35 35 32 26 29 26 23 26 29 26 19 16 19 16 13 19 13 13 13 13 19 26 26 23 19
42 29 0 0 0 0 0 0 0 0 0 0 0 0 0 0 3 3 3 3 3 3 3 13 35 35 35 39 29 32 26 23 26 23 19 13 16 13 16 19 13 13 13 16 16 23 23 19 19
19 23 0 0 0 0 0 0 0 0 0 0 0 0 0 3 3 3 3 3 3 6 6 6 10 19 32 39 32 29 29 26 19 23 23 19 16 16 16 16 13 13 13 10 23 19 19 16 16
23 16 0 0 0 0 0 0 0 0 0 0 0 0 0 3 3 3 3 3 3 3 6 6 6 10 10 10 32 19 19 26 23 19 19 26 23 19 13 10 6 13 13 13 19 10 10 13 16
13 13 3 0 0 0 0 0 0 0 0 0 0 0 0 3 3 3 3 3 3 3 3 3 6 6 10 3 3 13 19 13 13 13 13 13 6 10 6 6 10 13 10 10 13 16 10 16 19
13 13 3 0 0 0 0 0 0 0 0 0 0 0 0 0 3 3 3 3 3 3 3 3 3 6 6 3 0 0 0 0 0 0 0 3 0 0 0 3 6 10 10 10 13 13 13 10 3
3 3 3 0 0 0 0 0 0 0 0 0 0 0 0 0 3 3 6 6 6 3 3 3 3 3 6 3 0 0 0 3 0 0 0 0 0 0 0 0 3 3 6 0 6 6 6 3 3
3 3 3 0 0 0 0 0 0 0 0 0 0 0 0 0 0 6 3 0 0 3 3 3 3 3 3 6 3 3 0 0 0 0 0 0 0 0 0 0 0 0 0 0 0 0 0 0 0
3 3 0 0 0 0 0 0 0 0 0 0 3 3 0 0 3 3 0 0 0 0 3 3 3 3 3 3 3 3 0 0 0 0 0 0 0 0 0 0 0 0 0 0 0 0 0 0 0
3 3 0 0 0 0 0 0 0 0 0 0 0 3 3 3 3 3 0 0 0 0 0 3 3 3 3 3 6 3 0 0 0 0 0 0 0 0 0 0 0 0 0 0 0 0 0 0 0
0 0 0 0 0 0 0 0 0 0 0 0 0 3 3 6 3 0 0 0 0 0 0 3 3 3 3 3 3 3 3 0 0 3 0 0 0 0 0 0 0 0 0 0 0 0 0 0 0
3 3 3 3 0 0 0 0 0 0 0 0 0 0 6 6 0 0 0 0 0 0 3 3 3 3 3 3 6 6 6 3 3 3 0 0 0 0 0 3 0 0 0 0 0 0 0 0 0
0 0 0 0 3 0 0 0 0 0 0 0 0 0 3 0 0 0 0 0 0 0 3 3 3 3 6 6 10 10 3 3 6 6 3 3 3 0 3 3 3 0 0 0 0 0 0 0 0
0 0 0 0 3 3 0 3 0 0 0 0 0 0 0 0 0 0 0 0 0 0 3 3 3 6 6 6 10 10 3 0 0 0 3 3 3 3 3 3 0 3 3 0 0 0 0 0 0
0 0 0 0 3 3 3 3 0 0 0 0 0 0 0 0 0 0 0 0 0 3 3 6 3 6 6 10 13 13 10 6 3 3 3 3 3 3 3 3 3 3 0 0 0 0 0 0 0
0 0 0 0 3 3 3 0 0 0 0 0 0 0 0 0 0 0 0 0 0 3 6 6 6 10 16 19 13 13 6 6 6 3 3 3 3 3 3 0 0 0 0 0 0 0 0 0 0
0 0 0 0 0 0 0 0 0 0 0 0 0 0 0 0 0 0 0 0 3 3 3 6 6 13 16 16 10 13 10 6 3 3 3 3 0 0 0 0 0 0 0 0 0 0 0 0 0
0 0 0 0 0 0 0 0 0 0 0 0 0 0 0 0 0 0 0 0 3 3 6 6 6 10 13 16 13 10 6 3 3 3 3 0 0 0 0 0 0 0 0 0 0 0 0 0 0
0 0 0 0 0 0 0 0 0 0 0 0 0 0 0 0 0 0 0 3 3 3 10 10 10 10 13 13 13 6 10 3 3 3 3 0 0 0 0 3 0 0 0 0 0 0 0 0 0
0 0 0 0 0 0 0 0 0 0 0 0 0 0 0 0 0 0 0 6 10 6 10 10 13 13 13 13 10 6 6 6 3 3 3 3 0 0 0 0 0 0 0 0 0 0 0 0 0
0 0 0 0 0 0 0 0 0 0 0 0 0 0 0 0 0 0 0 6 10 13 13 13 13 13 13 13 10 10 10 6 6 3 3 3 0 0 0 0 0 0 0 0 0 0 0 0 0
0 0 0 0 0 0 0 0 0 0 0 0 0 0 0 0 0 0 3 6 10 10 6 13 13 13 13 10 10 10 10 10 6 6 3 3 0 0 0 0 0 0 0 0 0 0 0 0 0
0 0 0 0 0 0 0 0 0 0 0 0 0 0 0 0 3 6 6 10 10 6 10 10 13 13 13 10 6 6 6 10 6 6 3 3 0 0 0 0 0 0 0 0 0 0 0 0 0
0 0 0 0 0 0 0 0 0 0 0 0 0 0 0 3 6 6 6 6 10 6 10 10 16 13 13 13 6 10 10 10 10 6 6 3 0 0 0 0 0 0 0 0 0 0 0 0 0
0 0 0 0 0 0 0 0 0 0 0 0 0 0 0 0 3 6 6 6 6 6 13 10 13 16 13 13 10 10 10 10 6 6 3 6 3 3 3 0 0 0 0 0 0 0 0 0 0
0 0 0 0 0 0 0 0 0 0 0 0 0 0 0 0 0 3 6 6 6 6 10 10 10 10 13 10 3 3 3 6 3 6 6 3 3 3 3 0 0 0 0 0 0 0 0 0 0